Location: Cedar Brake
(32.2526°N, 97.8459°W)
Time: 20:24:53
(UTC+00:00)

SL-16 R/B - Pass Details

Date: 22 April 2026
Orbit: 839 x 849 km, 71.0° (Epoch: 21 May)

Event Time Altitude Azimuth Distance (km) Brightness Sun altitude
Rises 02:05:47 0° 182° (S) 3,375 5.1 -12.9°
Reaches altitude 10° 02:08:18 10° 176° (S) 2,445 4.3 -13.4°
Maximum altitude 02:13:36 44° 105° (ESE) 1,140 2.4 -14.4°
Drops below altitude 10° 02:18:57 10° 34° (NE) 2,464 4.5 -15.4°
Sets 02:21:29 0° 29° (NNE) 3,404 5.3 -15.9°
